Weather History for Curacao, Curacao

Change the Weather History Date:

Tuesday, August 27, 2013

  Actual Average Record
Temperature  
Mean Temperature 84 °F -  
Max Temperature 89 °F 89 °F 93 °F (1997)
Min Temperature 79 °F 78 °F 75 °F (2008)
Cooling Degree Days 19    
Growing Degree Days 34 (Base 50)    
Moisture  
Dew Point 76 °F    
Average Humidity 76    
Maximum Humidity 84    
Minimum Humidity 63    
Precipitation  
Precipitation 0.00 in 0.06 in - ()
Sea Level Pressure  
Sea Level Pressure 29.88 in    
Wind  
Wind Speed 9 mph ()    
Max Wind Speed 20 mph    
Max Gust Speed -    
Visibility 7.3 miles    
Events      
Averages and records for this station are not official NWS values.
T = Trace of Precipitation, MM = Missing Value Source: Averaged Metar Reports

Daily Weather History Graph

Daily Weather History Graph

Search for Another Location

Airport:

Trip Planner

Search our weather history database for the weather conditions in past years. The results will help you decide how hot, cold, wet, or windy it might be!

Date:

Astronomy

Aug. 27, 2013 Rise Set
Actual Time 6:25 AM AST 6:49 PM AST
Civil Twilight 6:03 AM AST 7:10 PM AST
Nautical Twilight 5:38 AM AST 7:35 PM AST
Astronomical Twilight 5:13 AM AST 8:01 PM AST
Moon 11:56 PM AST (8/27) 12:05 PM AST (8/27)
Length of Visible Light 13h 06m
Length of Day
12h 23m
Waning Gibbous, 57% of the Moon is Illuminated
Aug 27
Waning Gibbous
Aug 28
Last Quarter
Sep 5
New
Sep 12
First Quarter
Sep 19
Full

Hourly Weather History & Observations

Time (AST) Temp. Heat Index Dew Point Humidity Pressure Visibility Wind Dir Wind Speed Gust Speed Precip Events Conditions
12:00 AM 82.4 °F 89.5 °F 75.2 °F 79% 29.89 in 6.2 mi ESE 10.4 mph - N/A   Partly Cloudy
1:00 AM 80.6 °F 86.2 °F 75.2 °F 84% 29.86 in 6.2 mi ESE 6.9 mph - N/A   Partly Cloudy
2:00 AM 82 °F - 75 °F 74% 29.87 in 25 mi SE 6.9 mph - -   Scattered Clouds
2:00 AM 80.6 °F 86.2 °F 75.2 °F 84% 29.86 in 6.2 mi SE 8.1 mph - N/A   Partly Cloudy
3:00 AM 80.6 °F 86.2 °F 75.2 °F 84% 29.83 in 6.2 mi ESE 6.9 mph - N/A   Scattered Clouds
4:00 AM 80.6 °F 86.2 °F 75.2 °F 84% 29.83 in 6.2 mi ESE 5.8 mph - N/A   Scattered Clouds
5:00 AM 80 °F - 74 °F 77% 29.86 in 25 mi ESE 3.5 mph - -   Partly Cloudy
5:00 AM 80.6 °F 85.4 °F 73.4 °F 79% 29.86 in 6.2 mi SE 5.8 mph - N/A   Scattered Clouds
6:00 AM 80.6 °F 86.2 °F 75.2 °F 84% 29.86 in 6.2 mi SE 5.8 mph - N/A   Scattered Clouds
7:00 AM 80.6 °F 86.2 °F 75.2 °F 84% 29.89 in 6.2 mi ESE 5.8 mph - N/A   Scattered Clouds
8:00 AM 85 °F - 75 °F 65% 29.91 in 28 mi ESE 11.5 mph - -   Scattered Clouds
8:00 AM 84.2 °F 92.3 °F 75.2 °F 74% 29.89 in 6.2 mi ESE 12.7 mph - N/A   Partly Cloudy
9:00 AM 86.0 °F 95.1 °F 75.2 °F 70% 29.92 in 6.2 mi ESE 12.7 mph - N/A   Scattered Clouds
10:00 AM 87.8 °F 99.7 °F 77.0 °F 70% 29.92 in 6.2 mi East 12.7 mph - N/A   Scattered Clouds
11:00 AM 87 °F - 76 °F 63% 29.92 in 28 mi ESE 16.1 mph - -   Partly Cloudy
11:00 AM 87.8 °F 99.7 °F 77.0 °F 70% 29.92 in 6.2 mi East 15.0 mph - N/A   Scattered Clouds
12:00 PM 87.8 °F 99.7 °F 77.0 °F 70% 29.89 in 6.2 mi East 15.0 mph - N/A   Partly Cloudy
1:00 PM 87.8 °F 99.7 °F 77.0 °F 70% 29.89 in 6.2 mi East 16.1 mph - N/A   Partly Cloudy
2:00 PM 87.8 °F 99.7 °F 77.0 °F 70% 29.86 in 6.2 mi East 15.0 mph - N/A   Partly Cloudy
3:00 PM 87.8 °F 97.6 °F 75.2 °F 66% 29.83 in - East 15.0 mph - N/A   Partly Cloudy
4:00 PM 87.8 °F 99.7 °F 77.0 °F 70% 29.80 in 6.2 mi East 12.7 mph - N/A   Partly Cloudy
5:00 PM 87.8 °F 99.7 °F 77.0 °F 70% 29.83 in 6.2 mi East 10.4 mph - N/A   Partly Cloudy
6:00 PM 86.0 °F 96.9 °F 77.0 °F 74% 29.83 in 6.2 mi East 15.0 mph - N/A   Partly Cloudy
7:00 PM 84.2 °F 94.1 °F 77.0 °F 79% 29.86 in 6.2 mi East 15.0 mph - N/A   Partly Cloudy
8:00 PM 83 °F - 77 °F 78% 29.88 in 19 mi ESE 12.7 mph - -   Scattered Clouds
8:00 PM 84.2 °F 94.1 °F 77.0 °F 79% 29.89 in 6.2 mi East 13.8 mph - N/A   Partly Cloudy
9:00 PM 84.2 °F 94.1 °F 77.0 °F 79% 29.92 in 6.2 mi ESE 11.5 mph - N/A   Partly Cloudy
11:00 PM 83 °F - 77 °F 76% 29.94 in 19 mi ESE 20.1 mph - -   Scattered Clouds
11:00 PM 82.4 °F 90.9 °F 77.0 °F 84% 29.92 in 6.2 mi ESE 11.5 mph - N/A   Partly Cloudy